"Pseudo-MPEC" for P117N4A

Created 2020 Oct 20 3:07:17 UT using Find_Orb

Click here for an explanation of pseudo-MPECs

 
 Astrometry: 
     P117N4A  C2020 10 14fOHKCy[An-sq!.6]`ZB52W6Cni'T#.AstrometryAS0FPc[qXiDOF51
     P117N4A  C2020 10 14D,redacted;?'lT#\fZrcclickxgRZu0BcRcmhereoforxeMgcW1F51
     P117N4A  C2020 10 14pPlb^explanationox%*Kh\lug+8^HD!;:yAAjR,`)yAHUFRZ5iLF51

Station data:
(F51) Pan-STARRS 1, Haleakala  (N20.707235 W156.255910)  US/Hawaii.
   Observers N. Primak, A. Schultz, S. Watters, J. Thiel, T. Goggia. Measurer
   PS1 Science Consortium. 1.8-m Ritchey-Chrétien + CCD.

Orbital elements:  P117N4A
   Perihelion 2020 Aug 19.939082 +/- 37 TT = 22:32:16 (JD 2459081.439082)
Epoch 2020 Oct 14.0 TT = JDT 2459136.5   Earth MOID: 0.0068   AutoNEOCP
M  48.96044685 +/- 21               (J2000 ecliptic)
n   0.88920505 +/- 0.409            Peri.  126.83318 +/- 60
a   1.07102950 +/- 0.328            Node   196.78969 +/- 48
e   0.0859808 +/- 0.247             Incl.    2.96925 +/- 5.9
P   1.11/404.85d           H 29.1   G  0.15   U 12.1  SR
q 0.97894145 +/- 0.229    Q 1.16311754 +/- 41.4
From 3 observations 2020 Oct. 14 (32.0 min); mean residual 0".07
Residuals in arcseconds: 
201014 F51  .02+  .07-    201014 F51  .04-  .14+    201014 F51  .02+  .07-    

Ephemerides (geocentric):
Date (UTC) HH   RA              Dec         delta   r     elong  mag " sig PA
---- -- -- --  -------------   -----------  ------ ------ -----  --- ---- ---
2020 10 20 03  01 16 29.462   -11 04 46.35  .02941 1.0230 157.8 22.5  44d 178
2020 10 20 04  01 16 39.932   -11 05 35.58  .02949 1.0231 157.8 22.5  44d 178
2020 10 20 05  01 16 50.352   -11 06 24.43  .02956 1.0231 157.7 22.5  45d 178
2020 10 20 06  01 17 00.724   -11 07 12.89  .02964 1.0232 157.7 22.5  45d 178
2020 10 20 07  01 17 11.047   -11 08 00.98  .02971 1.0232 157.7 22.6  45d 178
2020 10 20 08  01 17 21.322   -11 08 48.68  .02979 1.0233 157.6 22.6  45d 178
2020 10 20 09  01 17 31.550   -11 09 36.01  .02986 1.0234 157.6 22.6  45d 178
2020 10 20 10  01 17 41.729   -11 10 22.97  .02994 1.0234 157.6 22.6  45d 178
2020 10 20 11  01 17 51.862   -11 11 09.56  .03001 1.0235 157.6 22.6  45d 178
2020 10 20 12  01 18 01.948   -11 11 55.78  .03009 1.0235 157.5 22.6  45d 178
2020 10 20 13  01 18 11.988   -11 12 41.63  .03016 1.0236 157.5 22.6  45d 178
2020 10 20 14  01 18 21.982   -11 13 27.12  .03024 1.0236 157.5 22.6  46d 178
2020 10 20 15  01 18 31.930   -11 14 12.25  .03031 1.0237 157.5 22.6  46d 178
2020 10 20 16  01 18 41.832   -11 14 57.02  .03039 1.0237 157.4 22.6  46d 178
2020 10 20 17  01 18 51.689   -11 15 41.43  .03046 1.0238 157.4 22.6  46d 178
2020 10 20 18  01 19 01.501   -11 16 25.49  .03054 1.0238 157.4 22.6  46d 178
2020 10 20 19  01 19 11.269   -11 17 09.19  .03061 1.0239 157.4 22.6  46d 178
2020 10 20 20  01 19 20.993   -11 17 52.55  .03069 1.0239 157.3 22.6  46d 178
2020 10 20 21  01 19 30.672   -11 18 35.56  .03077 1.0240 157.3 22.6  46d 178
2020 10 20 22  01 19 40.308   -11 19 18.23  .03084 1.0240 157.3 22.6  46d 178
2020 10 20 23  01 19 49.901   -11 20 00.55  .03092 1.0241 157.3 22.7  46d 178
2020 10 21 00  01 19 59.451   -11 20 42.53  .03099 1.0241 157.2 22.7  46d 178
2020 10 21 01  01 20 08.957   -11 21 24.17  .03107 1.0242 157.2 22.7  47d 178
2020 10 21 02  01 20 18.422   -11 22 05.48  .03114 1.0243 157.2 22.7  47d 178
2020 10 21 03  01 20 27.844   -11 22 46.45  .03122 1.0243 157.2 22.7  47d 178
2020 10 21 04  01 20 37.224   -11 23 27.09  .03130 1.0244 157.1 22.7  47d 178
2020 10 21 05  01 20 46.563   -11 24 07.40  .03137 1.0244 157.1 22.7  47d 178
2020 10 21 06  01 20 55.860   -11 24 47.38  .03145 1.0245 157.1 22.7  47d 178
2020 10 21 07  01 21 05.116   -11 25 27.04  .03152 1.0245 157.1 22.7  47d 178
2020 10 21 08  01 21 14.332   -11 26 06.37  .03160 1.0246 157.0 22.7  47d 178
2020 10 21 09  01 21 23.507   -11 26 45.38  .03168 1.0246 157.0 22.7  47d 178
2020 10 21 10  01 21 32.642   -11 27 24.07  .03175 1.0247 157.0 22.7  47d 178
2020 10 21 11  01 21 41.736   -11 28 02.44  .03183 1.0247 157.0 22.7  47d 178
2020 10 21 12  01 21 50.791   -11 28 40.50  .03190 1.0248 156.9 22.7  47d 178
2020 10 21 13  01 21 59.807   -11 29 18.24  .03198 1.0248 156.9 22.7  48d 178
2020 10 21 14  01 22 08.783   -11 29 55.67  .03206 1.0249 156.9 22.7  48d 178
2020 10 21 15  01 22 17.721   -11 30 32.79  .03213 1.0249 156.9 22.7  48d 178
2020 10 21 16  01 22 26.619   -11 31 09.61  .03221 1.0250 156.8 22.8  48d 178
2020 10 21 17  01 22 35.480   -11 31 46.11  .03229 1.0251 156.8 22.8  48d 178
2020 10 21 18  01 22 44.302   -11 32 22.31  .03236 1.0251 156.8 22.8  48d 178
2020 10 21 19  01 22 53.086   -11 32 58.21  .03244 1.0252 156.8 22.8  48d 178
2020 10 21 20  01 23 01.833   -11 33 33.81  .03252 1.0252 156.7 22.8  48d 178
2020 10 21 21  01 23 10.542   -11 34 09.11  .03259 1.0253 156.7 22.8  48d 178
2020 10 21 22  01 23 19.214   -11 34 44.11  .03267 1.0253 156.7 22.8  48d 178
2020 10 21 23  01 23 27.849   -11 35 18.82  .03275 1.0254 156.7 22.8  48d 178
2020 10 22 00  01 23 36.447   -11 35 53.24  .03282 1.0254 156.6 22.8  48d 177
2020 10 22 01  01 23 45.009   -11 36 27.36  .03290 1.0255 156.6 22.8  48d 177
2020 10 22 02  01 23 53.535   -11 37 01.19  .03298 1.0255 156.6 22.8  48d 177